Time,TemperatureF,DewpointF,PressureIn,WindDirection,WindDirectionDegrees,WindSpeedMPH,WindSpeedGustMPH,Humidity,HourlyPrecipIn,Conditions,Clouds,dailyrainin,SoftwareType,DateUTC
2014-01-24 10:44:00,4.0,-6.0,30.15,South,175,1.0,2.0,62,0.00,,,0.00,,2014-01-24 15:44:00,
2014-01-24 10:53:00,5.0,-5.0,30.15,ENE,68,1.0,9.0,62,0.00,,,0.00,,2014-01-24 15:53:00,
2014-01-24 11:23:00,6.0,-6.0,30.15,SW,231,1.0,9.0,57,0.00,,,0.00,,2014-01-24 16:23:00,
2014-01-24 11:42:00,6.0,-6.0,30.14,SSW,194,2.0,7.0,56,0.00,,,0.00,,2014-01-24 16:42:00,
2014-01-24 11:53:00,7.0,-6.0,30.14,WSW,244,2.0,6.0,54,0.00,,,0.00,,2014-01-24 16:53:00,
2014-01-24 12:22:00,8.0,-7.0,30.12,East,101,1.0,9.0,49,0.00,,,0.00,,2014-01-24 17:22:00,
2014-01-24 12:42:00,8.0,-7.0,30.13,South,169,3.0,13.0,49,0.00,,,0.00,,2014-01-24 17:42:00,
2014-01-24 12:52:00,9.0,-6.0,30.11,WSW,238,1.0,8.0,49,0.00,,,0.00,,2014-01-24 17:52:00,
2014-01-24 13:12:00,8.0,-7.0,30.11,ESE,111,1.0,7.0,50,0.00,,,0.00,,2014-01-24 18:12:00,
2014-01-24 13:22:00,10.0,-5.0,30.11,NE,56,0.0,5.0,49,0.00,,,0.00,,2014-01-24 18:22:00,
2014-01-24 13:43:00,10.0,-4.0,30.11,South,185,1.0,5.0,51,0.00,,,0.00,,2014-01-24 18:43:00,
2014-01-24 13:52:00,10.0,-5.0,30.11,SSW,196,1.0,7.0,50,0.00,,,0.00,,2014-01-24 18:52:00,
2014-01-24 14:12:00,10.0,-5.0,30.10,East,92,0.0,5.0,49,0.00,,,0.00,,2014-01-24 19:12:00,
2014-01-24 14:22:00,10.0,-4.0,30.10,SSW,202,2.0,6.0,52,0.00,,,0.00,,2014-01-24 19:22:00,
2014-01-24 14:42:00,10.0,-4.0,30.10,SSW,196,2.0,5.0,52,0.00,,,0.00,,2014-01-24 19:42:00,
2014-01-24 14:52:00,8.0,-5.0,30.10,NNW,331,0.0,6.0,55,0.00,,,0.00,,2014-01-24 19:52:00,
2014-01-24 15:11:00,10.0,-2.0,30.09,SSW,196,1.0,4.0,57,0.00,,,0.00,,2014-01-24 20:11:00,
2014-01-24 15:22:00,9.0,-3.0,30.08,South,180,0.0,6.0,58,0.00,,,0.00,,2014-01-24 20:22:00,
2014-01-24 15:42:00,9.0,-2.0,30.08,SW,217,0.0,5.0,61,0.00,,,0.00,,2014-01-24 20:42:00,
2014-01-24 15:52:00,8.0,-2.0,30.08,SW,219,2.0,7.0,63,0.00,,,0.00,,2014-01-24 20:52:00,
2014-01-24 16:12:00,7.0,-2.0,30.07,SW,215,1.0,7.0,65,0.00,,,0.00,,2014-01-24 21:12:00,
2014-01-24 16:22:00,7.0,-2.0,30.07,SW,227,0.0,3.0,66,0.00,,,0.00,,2014-01-24 21:22:00,
2014-01-24 16:43:00,7.0,-2.0,30.07,SW,223,0.0,3.0,67,0.00,,,0.00,,2014-01-24 21:43:00,
2014-01-24 16:53:00,6.0,-2.0,30.06,South,182,0.0,3.0,68,0.00,,,0.00,,2014-01-24 21:53:00,
2014-01-24 17:13:00,6.0,-2.0,30.06,South,181,0.0,2.0,70,0.00,,,0.00,,2014-01-24 22:13:00,
2014-01-24 17:23:00,5.0,-3.0,30.06,SW,220,0.0,3.0,69,0.00,,,0.00,,2014-01-24 22:23:00,
2014-01-24 17:43:00,5.0,-3.0,30.06,SW,220,0.0,1.0,69,0.00,,,0.00,,2014-01-24 22:43:00,
2014-01-24 17:52:00,5.0,-3.0,30.06,SW,219,0.0,3.0,70,0.00,,,0.00,,2014-01-24 22:52:00,
2014-01-24 18:22:00,4.0,-3.0,30.07,SW,219,0.0,1.0,73,0.00,,,0.00,,2014-01-24 23:22:00,
2014-01-24 18:33:00,4.0,-3.0,30.07,SW,219,0.0,1.0,73,0.00,,,0.00,,2014-01-24 23:33:00,
2014-01-24 18:42:00,4.0,-3.0,30.07,SW,219,0.0,1.0,73,0.00,,,0.00,,2014-01-24 23:42:00,
2014-01-24 18:52:00,5.0,-3.0,30.06,SW,217,1.0,6.0,70,0.00,,,0.00,,2014-01-24 23:52:00,
2014-01-24 19:11:00,6.0,-2.0,30.06,SSW,209,1.0,6.0,68,0.00,,,0.00,,2014-01-25 00:11:00,
2014-01-24 19:22:00,6.0,-2.0,30.05,SSW,193,2.0,8.0,68,0.00,,,0.00,,2014-01-25 00:22:00,
2014-01-24 19:42:00,6.0,-2.0,30.05,SW,217,2.0,8.0,68,0.00,,,0.00,,2014-01-25 00:42:00,
2014-01-24 19:52:00,6.0,-2.0,30.04,SW,217,1.0,6.0,68,0.00,,,0.00,,2014-01-25 00:52:00,
2014-01-24 20:12:00,6.0,-3.0,30.03,SSW,209,3.0,8.0,67,0.00,,,0.00,,2014-01-25 01:12:00,
2014-01-24 20:22:00,6.0,-2.0,30.03,SW,218,2.0,8.0,68,0.00,,,0.00,,2014-01-25 01:22:00,
2014-01-24 20:42:00,6.0,-2.0,30.02,South,183,4.0,11.0,68,0.00,,,0.00,,2014-01-25 01:42:00,
2014-01-24 20:52:00,6.0,-2.0,30.02,WSW,240,4.0,11.0,68,0.00,,,0.00,,2014-01-25 01:52:00,
2014-01-24 21:12:00,6.0,-2.0,30.01,SW,218,4.0,10.0,69,0.00,,,0.00,,2014-01-25 02:12:00,
2014-01-24 21:22:00,6.0,-2.0,30.01,SW,225,1.0,11.0,70,0.00,,,0.00,,2014-01-25 02:22:00,
2014-01-24 21:42:00,6.0,-2.0,29.99,South,186,2.0,8.0,70,0.00,,,0.00,,2014-01-25 02:42:00,
2014-01-24 21:52:00,6.0,-2.0,29.99,SW,231,3.0,9.0,70,0.00,,,0.00,,2014-01-25 02:52:00,
2014-01-24 22:11:00,6.0,-2.0,29.98,SW,219,6.0,12.0,70,0.00,,,0.00,,2014-01-25 03:11:00,
2014-01-24 22:22:00,6.0,-2.0,29.97,SW,225,2.0,11.0,70,0.00,,,0.00,,2014-01-25 03:22:00,
2014-01-24 22:43:00,6.0,-2.0,29.97,SSW,197,3.0,9.0,70,0.00,,,0.00,,2014-01-25 03:43:00,
2014-01-24 22:53:00,6.0,-2.0,29.96,SW,219,1.0,8.0,70,0.00,,,0.00,,2014-01-25 03:53:00,
2014-01-24 23:13:00,6.0,-2.0,29.96,SW,217,1.0,10.0,70,0.00,,,0.00,,2014-01-25 04:13:00,
2014-01-24 23:23:00,6.0,-2.0,29.94,South,180,5.0,10.0,70,0.00,,,0.00,,2014-01-25 04:23:00,
2014-01-24 23:43:00,5.0,-2.0,29.94,SW,221,4.0,9.0,71,0.00,,,0.00,,2014-01-25 04:43:00,
2014-01-24 23:53:00,6.0,-2.0,29.93,SW,218,3.0,10.0,70,0.00,,,0.00,,2014-01-25 04:53:00,